owner,sensor,date,latitude,longitude,vertical_datum,sea_water_temperature,qcFlag 
NERRS,ioos:station:NOAA.NERRS:wkbfrwq:1,2014-01-02T17:45:00Z,30.4162,-87.8228,0.0,11.9,2 
NERRS,ioos:station:NOAA.NERRS:wkbfrwq:1,2014-01-02T18:45:00Z,30.4162,-87.8228,0.0,11.9,2 
NERRS,ioos:station:NOAA.NERRS:wkbfrwq:1,2014-01-02T19:45:00Z,30.4162,-87.8228,0.0,12.8,2 
NERRS,ioos:station:NOAA.NERRS:wkbfrwq:1,2014-01-02T20:45:00Z,30.4162,-87.8228,0.0,13.1,2 
NERRS,ioos:station:NOAA.NERRS:wkbfrwq:1,2014-01-02T21:45:00Z,30.4162,-87.8228,0.0,13.0,2 
NERRS,ioos:station:NOAA.NERRS:wkbfrwq:1,2014-01-02T23:45:00Z,30.4162,-87.8228,0.0,13.0,2 
NERRS,ioos:station:NOAA.NERRS:wkbfrwq:1,2014-01-03T00:45:00Z,30.4162,-87.8228,0.0,12.6,2 
NERRS,ioos:station:NOAA.NERRS:wkbfrwq:1,2014-01-03T01:45:00Z,30.4162,-87.8228,0.0,12.9,2 
NERRS,ioos:station:NOAA.NERRS:wkbfrwq:1,2014-01-03T03:45:00Z,30.4162,-87.8228,0.0,12.6,2 
NERRS,ioos:station:NOAA.NERRS:wkbfrwq:1,2014-01-03T08:45:00Z,30.4162,-87.8228,0.0,11.3,2 
NERRS,ioos:station:NOAA.NERRS:wkbfrwq:1,2014-01-03T09:45:00Z,30.4162,-87.8228,0.0,11.7,2 
NERRS,ioos:station:NOAA.NERRS:wkbfrwq:1,2014-01-03T10:45:00Z,30.4162,-87.8228,0.0,11.9,2 
NERRS,ioos:station:NOAA.NERRS:wkbfrwq:1,2014-01-03T11:45:00Z,30.4162,-87.8228,0.0,12.0,2 
NERRS,ioos:station:NOAA.NERRS:wkbfrwq:1,2014-01-03T13:45:00Z,30.4162,-87.8228,0.0,11.7,2 
NERRS,ioos:station:NOAA.NERRS:wkbfrwq:1,2014-01-03T14:45:00Z,30.4162,-87.8228,0.0,10.3,2 
NERRS,ioos:station:NOAA.NERRS:wkbfrwq:1,2014-01-03T15:45:00Z,30.4162,-87.8228,0.0,10.7,2 
NERRS,ioos:station:NOAA.NERRS:wkbfrwq:1,2014-01-03T17:45:00Z,30.4162,-87.8228,0.0,11.0,2 
NERRS,ioos:station:NOAA.NERRS:wkbfrwq:1,2014-01-03T18:45:00Z,30.4162,-87.8228,0.0,11.1,2 
NERRS,ioos:station:NOAA.NERRS:wkbfrwq:1,2014-01-03T19:45:00Z,30.4162,-87.8228,0.0,11.0,2 
NERRS,ioos:station:NOAA.NERRS:wkbfrwq:1,2014-01-03T20:45:00Z,30.4162,-87.8228,0.0,11.1,2 
NERRS,ioos:station:NOAA.NERRS:wkbfrwq:1,2014-01-03T21:45:00Z,30.4162,-87.8228,0.0,11.3,2 
NERRS,ioos:station:NOAA.NERRS:wkbfrwq:1,2014-01-03T22:45:00Z,30.4162,-87.8228,0.0,11.1,2 
NERRS,ioos:station:NOAA.NERRS:wkbfrwq:1,2014-01-03T23:45:00Z,30.4162,-87.8228,0.0,10.8,2 
NERRS,ioos:station:NOAA.NERRS:wkbfrwq:1,2014-01-04T00:45:00Z,30.4162,-87.8228,0.0,10.5,2 
NERRS,ioos:station:NOAA.NERRS:wkbfrwq:1,2014-01-04T01:45:00Z,30.4162,-87.8228,0.0,10.3,2 
NERRS,ioos:station:NOAA.NERRS:wkbfrwq:1,2014-01-04T02:45:00Z,30.4162,-87.8228,0.0,9.8,2 
NERRS,ioos:station:NOAA.NERRS:wkbfrwq:1,2014-01-04T03:45:00Z,30.4162,-87.8228,0.0,9.5,2 
NERRS,ioos:station:NOAA.NERRS:wkbfrwq:1,2014-01-04T04:45:00Z,30.4162,-87.8228,0.0,9.5,2 
NERRS,ioos:station:NOAA.NERRS:wkbfrwq:1,2014-01-04T05:45:00Z,30.4162,-87.8228,0.0,9.6,2 
NERRS,ioos:station:NOAA.NERRS:wkbfrwq:1,2014-01-04T06:45:00Z,30.4162,-87.8228,0.0,9.1,2 
NERRS,ioos:station:NOAA.NERRS:wkbfrwq:1,2014-01-04T07:45:00Z,30.4162,-87.8228,0.0,9.0,2 
NERRS,ioos:station:NOAA.NERRS:wkbfrwq:1,2014-01-04T08:45:00Z,30.4162,-87.8228,0.0,8.9,2 
NERRS,ioos:station:NOAA.NERRS:wkbfrwq:1,2014-01-04T09:45:00Z,30.4162,-87.8228,0.0,9.4,2 
NERRS,ioos:station:NOAA.NERRS:wkbfrwq:1,2014-01-04T10:45:00Z,30.4162,-87.8228,0.0,9.6,2 
NERRS,ioos:station:NOAA.NERRS:wkbfrwq:1,2014-01-04T11:45:00Z,30.4162,-87.8228,0.0,9.5,2 
NERRS,ioos:station:NOAA.NERRS:wkbfrwq:1,2014-01-04T12:45:00Z,30.4162,-87.8228,0.0,9.8,2 
NERRS,ioos:station:NOAA.NERRS:wkbfrwq:1,2014-01-04T13:45:00Z,30.4162,-87.8228,0.0,9.7,2 
NERRS,ioos:station:NOAA.NERRS:wkbfrwq:1,2014-01-04T14:45:00Z,30.4162,-87.8228,0.0,9.7,2 
NERRS,ioos:station:NOAA.NERRS:wkbfrwq:1,2014-01-04T15:45:00Z,30.4162,-87.8228,0.0,10.0,2 
NERRS,ioos:station:NOAA.NERRS:wkbfrwq:1,2014-01-04T16:45:00Z,30.4162,-87.8228,0.0,9.6,2 
NERRS,ioos:station:NOAA.NERRS:wkbfrwq:1,2014-01-04T17:45:00Z,30.4162,-87.8228,0.0,9.5,2 
NERRS,ioos:station:NOAA.NERRS:wkbfrwq:1,2014-01-04T18:45:00Z,30.4162,-87.8228,0.0,9.8,2 
NERRS,ioos:station:NOAA.NERRS:wkbfrwq:1,2014-01-04T19:45:00Z,30.4162,-87.8228,0.0,10.8,2 
NERRS,ioos:station:NOAA.NERRS:wkbfrwq:1,2014-01-04T20:45:00Z,30.4162,-87.8228,0.0,10.8,2 
NERRS,ioos:station:NOAA.NERRS:wkbfrwq:1,2014-01-04T21:45:00Z,30.4162,-87.8228,0.0,10.7,2 
NERRS,ioos:station:NOAA.NERRS:wkbfrwq:1,2014-01-04T22:45:00Z,30.4162,-87.8228,0.0,11.0,2 
NERRS,ioos:station:NOAA.NERRS:wkbfrwq:1,2014-01-04T23:45:00Z,30.4162,-87.8228,0.0,11.0,2 
NERRS,ioos:station:NOAA.NERRS:wkbfrwq:1,2014-01-05T00:45:00Z,30.4162,-87.8228,0.0,11.1,2 
NERRS,ioos:station:NOAA.NERRS:wkbfrwq:1,2014-01-05T01:45:00Z,30.4162,-87.8228,0.0,10.9,2 
NERRS,ioos:station:NOAA.NERRS:wkbfrwq:1,2014-01-05T02:45:00Z,30.4162,-87.8228,0.0,10.8,2 
NERRS,ioos:station:NOAA.NERRS:wkbfrwq:1,2014-01-05T03:45:00Z,30.4162,-87.8228,0.0,11.0,2 
NERRS,ioos:station:NOAA.NERRS:wkbfrwq:1,2014-01-05T04:45:00Z,30.4162,-87.8228,0.0,10.7,2 
NERRS,ioos:station:NOAA.NERRS:wkbfrwq:1,2014-01-05T05:45:00Z,30.4162,-87.8228,0.0,10.5,2 
NERRS,ioos:station:NOAA.NERRS:wkbfrwq:1,2014-01-05T06:45:00Z,30.4162,-87.8228,0.0,10.5,2 
NERRS,ioos:station:NOAA.NERRS:wkbfrwq:1,2014-01-05T07:45:00Z,30.4162,-87.8228,0.0,10.4,2 
NERRS,ioos:station:NOAA.NERRS:wkbfrwq:1,2014-01-05T08:45:00Z,30.4162,-87.8228,0.0,10.3,2 
NERRS,ioos:station:NOAA.NERRS:wkbfrwq:1,2014-01-05T09:45:00Z,30.4162,-87.8228,0.0,10.4,2 
NERRS,ioos:station:NOAA.NERRS:wkbfrwq:1,2014-01-05T10:45:00Z,30.4162,-87.8228,0.0,10.4,2 
NERRS,ioos:station:NOAA.NERRS:wkbfrwq:1,2014-01-05T11:45:00Z,30.4162,-87.8228,0.0,10.5,2 
NERRS,ioos:station:NOAA.NERRS:wkbfrwq:1,2014-01-05T12:45:00Z,30.4162,-87.8228,0.0,10.6,2 
NERRS,ioos:station:NOAA.NERRS:wkbfrwq:1,2014-01-05T13:45:00Z,30.4162,-87.8228,0.0,10.6,2 
NERRS,ioos:station:NOAA.NERRS:wkbfrwq:1,2014-01-05T14:45:00Z,30.4162,-87.8228,0.0,10.6,2 
NERRS,ioos:station:NOAA.NERRS:wkbfrwq:1,2014-01-05T15:45:00Z,30.4162,-87.8228,0.0,10.4,2 
NERRS,ioos:station:NOAA.NERRS:wkbfrwq:1,2014-01-05T16:45:00Z,30.4162,-87.8228,0.0,10.4,2 
NERRS,ioos:station:NOAA.NERRS:wkbfrwq:1,2014-01-05T17:45:00Z,30.4162,-87.8228,0.0,9.6,2 
NERRS,ioos:station:NOAA.NERRS:wkbfrwq:1,2014-01-05T18:45:00Z,30.4162,-87.8228,0.0,10.1,2 
NERRS,ioos:station:NOAA.NERRS:wkbfrwq:1,2014-01-05T19:45:00Z,30.4162,-87.8228,0.0,10.5,2 
NERRS,ioos:station:NOAA.NERRS:wkbfrwq:1,2014-01-05T20:45:00Z,30.4162,-87.8228,0.0,10.3,2 
NERRS,ioos:station:NOAA.NERRS:wkbfrwq:1,2014-01-05T21:45:00Z,30.4162,-87.8228,0.0,10.5,2 
NERRS,ioos:station:NOAA.NERRS:wkbfrwq:1,2014-01-05T22:45:00Z,30.4162,-87.8228,0.0,10.7,2 
NERRS,ioos:station:NOAA.NERRS:wkbfrwq:1,2014-01-05T23:45:00Z,30.4162,-87.8228,0.0,10.7,2 
NERRS,ioos:station:NOAA.NERRS:wkbfrwq:1,2014-01-06T00:45:00Z,30.4162,-87.8228,0.0,10.4,2 
NERRS,ioos:station:NOAA.NERRS:wkbfrwq:1,2014-01-06T01:45:00Z,30.4162,-87.8228,0.0,10.4,2 
NERRS,ioos:station:NOAA.NERRS:wkbfrwq:1,2014-01-06T02:45:00Z,30.4162,-87.8228,0.0,10.7,2 
NERRS,ioos:station:NOAA.NERRS:wkbfrwq:1,2014-01-06T03:45:00Z,30.4162,-87.8228,0.0,10.6,2 
NERRS,ioos:station:NOAA.NERRS:wkbfrwq:1,2014-01-06T04:45:00Z,30.4162,-87.8228,0.0,11.0,2 
NERRS,ioos:station:NOAA.NERRS:wkbfrwq:1,2014-01-06T05:45:00Z,30.4162,-87.8228,0.0,10.9,2 
NERRS,ioos:station:NOAA.NERRS:wkbfrwq:1,2014-01-06T06:45:00Z,30.4162,-87.8228,0.0,11.8,2 
NERRS,ioos:station:NOAA.NERRS:wkbfrwq:1,2014-01-06T07:45:00Z,30.4162,-87.8228,0.0,11.2,2 
NERRS,ioos:station:NOAA.NERRS:wkbfrwq:1,2014-01-06T09:45:00Z,30.4162,-87.8228,0.0,11.2,2 
NERRS,ioos:station:NOAA.NERRS:wkbfrwq:1,2014-01-06T10:45:00Z,30.4162,-87.8228,0.0,11.2,2 
NERRS,ioos:station:NOAA.NERRS:wkbfrwq:1,2014-01-06T11:45:00Z,30.4162,-87.8228,0.0,11.0,2 
NERRS,ioos:station:NOAA.NERRS:wkbfrwq:1,2014-01-06T12:45:00Z,30.4162,-87.8228,0.0,10.7,2 
NERRS,ioos:station:NOAA.NERRS:wkbfrwq:1,2014-01-06T13:45:00Z,30.4162,-87.8228,0.0,10.5,2 
NERRS,ioos:station:NOAA.NERRS:wkbfrwq:1,2014-01-06T14:45:00Z,30.4162,-87.8228,0.0,10.5,2 
NERRS,ioos:station:NOAA.NERRS:wkbfrwq:1,2014-01-06T15:45:00Z,30.4162,-87.8228,0.0,10.5,2 
NERRS,ioos:station:NOAA.NERRS:wkbfrwq:1,2014-01-06T16:45:00Z,30.4162,-87.8228,0.0,10.5,2 
NERRS,ioos:station:NOAA.NERRS:wkbfrwq:1,2014-01-06T17:45:00Z,30.4162,-87.8228,0.0,10.7,2 
NERRS,ioos:station:NOAA.NERRS:wkbfrwq:1,2014-01-06T18:45:00Z,30.4162,-87.8228,0.0,10.7,2 
NERRS,ioos:station:NOAA.NERRS:wkbfrwq:1,2014-01-06T19:45:00Z,30.4162,-87.8228,0.0,10.7,2 
NERRS,ioos:station:NOAA.NERRS:wkbfrwq:1,2014-01-06T20:45:00Z,30.4162,-87.8228,0.0,10.6,2 
NERRS,ioos:station:NOAA.NERRS:wkbfrwq:1,2014-01-06T22:45:00Z,30.4162,-87.8228,0.0,10.2,2 
NERRS,ioos:station:NOAA.NERRS:wkbfrwq:1,2014-01-06T23:45:00Z,30.4162,-87.8228,0.0,10.1,2 
NERRS,ioos:station:NOAA.NERRS:wkbfrwq:1,2014-01-07T00:45:00Z,30.4162,-87.8228,0.0,9.8,2 
NERRS,ioos:station:NOAA.NERRS:wkbfrwq:1,2014-01-07T01:45:00Z,30.4162,-87.8228,0.0,9.8,2 
NERRS,ioos:station:NOAA.NERRS:wkbfrwq:1,2014-01-07T02:45:00Z,30.4162,-87.8228,0.0,9.6,2 
NERRS,ioos:station:NOAA.NERRS:wkbfrwq:1,2014-01-07T03:45:00Z,30.4162,-87.8228,0.0,9.4,2 
NERRS,ioos:station:NOAA.NERRS:wkbfrwq:1,2014-01-07T04:45:00Z,30.4162,-87.8228,0.0,9.3,2 
NERRS,ioos:station:NOAA.NERRS:wkbfrwq:1,2014-01-07T05:45:00Z,30.4162,-87.8228,0.0,8.9,2 
NERRS,ioos:station:NOAA.NERRS:wkbfrwq:1,2014-01-07T06:45:00Z,30.4162,-87.8228,0.0,8.9,2 
NERRS,ioos:station:NOAA.NERRS:wkbfrwq:1,2014-01-07T07:45:00Z,30.4162,-87.8228,0.0,8.6,2 
NERRS,ioos:station:NOAA.NERRS:wkbfrwq:1,2014-01-07T08:45:00Z,30.4162,-87.8228,0.0,8.7,2 
NERRS,ioos:station:NOAA.NERRS:wkbfrwq:1,2014-01-07T09:45:00Z,30.4162,-87.8228,0.0,8.5,2 
NERRS,ioos:station:NOAA.NERRS:wkbfrwq:1,2014-01-07T10:45:00Z,30.4162,-87.8228,0.0,8.9,2 
NERRS,ioos:station:NOAA.NERRS:wkbfrwq:1,2014-01-07T11:45:00Z,30.4162,-87.8228,0.0,8.1,2 
NERRS,ioos:station:NOAA.NERRS:wkbfrwq:1,2014-01-07T12:45:00Z,30.4162,-87.8228,0.0,8.2,2 
NERRS,ioos:station:NOAA.NERRS:wkbfrwq:1,2014-01-07T13:45:00Z,30.4162,-87.8228,0.0,8.2,2 
NERRS,ioos:station:NOAA.NERRS:wkbfrwq:1,2014-01-07T14:45:00Z,30.4162,-87.8228,0.0,8.3,2 
NERRS,ioos:station:NOAA.NERRS:wkbfrwq:1,2014-01-07T15:45:00Z,30.4162,-87.8228,0.0,8.7,2 
NERRS,ioos:station:NOAA.NERRS:wkbfrwq:1,2014-01-07T16:45:00Z,30.4162,-87.8228,0.0,7.7,2 
NERRS,ioos:station:NOAA.NERRS:wkbfrwq:1,2014-01-07T17:45:00Z,30.4162,-87.8228,0.0,7.4,2 
NERRS,ioos:station:NOAA.NERRS:wkbfrwq:1,2014-01-07T18:45:00Z,30.4162,-87.8228,0.0,7.5,2 
NERRS,ioos:station:NOAA.NERRS:wkbfrwq:1,2014-01-07T19:45:00Z,30.4162,-87.8228,0.0,7.2,2 
NERRS,ioos:station:NOAA.NERRS:wkbfrwq:1,2014-01-07T21:45:00Z,30.4162,-87.8228,0.0,6.5,2 
NERRS,ioos:station:NOAA.NERRS:wkbfrwq:1,2014-01-07T22:45:00Z,30.4162,-87.8228,0.0,6.5,2 
NERRS,ioos:station:NOAA.NERRS:wkbfrwq:1,2014-01-07T23:45:00Z,30.4162,-87.8228,0.0,6.7,2 
NERRS,ioos:station:NOAA.NERRS:wkbfrwq:1,2014-01-08T00:45:00Z,30.4162,-87.8228,0.0,6.3,2 
NERRS,ioos:station:NOAA.NERRS:wkbfrwq:1,2014-01-08T01:45:00Z,30.4162,-87.8228,0.0,6.6,2 
NERRS,ioos:station:NOAA.NERRS:wkbfrwq:1,2014-01-08T02:45:00Z,30.4162,-87.8228,0.0,6.4,2 
NERRS,ioos:station:NOAA.NERRS:wkbfrwq:1,2014-01-08T03:45:00Z,30.4162,-87.8228,0.0,7.1,2 
NERRS,ioos:station:NOAA.NERRS:wkbfrwq:1,2014-01-08T04:45:00Z,30.4162,-87.8228,0.0,6.4,2 
NERRS,ioos:station:NOAA.NERRS:wkbfrwq:1,2014-01-08T05:45:00Z,30.4162,-87.8228,0.0,6.6,2 
NERRS,ioos:station:NOAA.NERRS:wkbfrwq:1,2014-01-08T06:45:00Z,30.4162,-87.8228,0.0,6.4,2 
NERRS,ioos:station:NOAA.NERRS:wkbfrwq:1,2014-01-08T07:45:00Z,30.4162,-87.8228,0.0,6.3,2 
NERRS,ioos:station:NOAA.NERRS:wkbfrwq:1,2014-01-08T08:45:00Z,30.4162,-87.8228,0.0,6.6,2 
NERRS,ioos:station:NOAA.NERRS:wkbfrwq:1,2014-01-08T09:45:00Z,30.4162,-87.8228,0.0,7.0,2 
NERRS,ioos:station:NOAA.NERRS:wkbfrwq:1,2014-01-08T10:45:00Z,30.4162,-87.8228,0.0,6.5,2 
NERRS,ioos:station:NOAA.NERRS:wkbfrwq:1,2014-01-08T11:45:00Z,30.4162,-87.8228,0.0,6.5,2 
NERRS,ioos:station:NOAA.NERRS:wkbfrwq:1,2014-01-08T12:45:00Z,30.4162,-87.8228,0.0,6.6,2 
NERRS,ioos:station:NOAA.NERRS:wkbfrwq:1,2014-01-08T13:45:00Z,30.4162,-87.8228,0.0,6.6,2 
NERRS,ioos:station:NOAA.NERRS:wkbfrwq:1,2014-01-08T14:45:00Z,30.4162,-87.8228,0.0,6.5,2 
NERRS,ioos:station:NOAA.NERRS:wkbfrwq:1,2014-01-08T15:45:00Z,30.4162,-87.8228,0.0,5.5,2 
NERRS,ioos:station:NOAA.NERRS:wkbfrwq:1,2014-01-08T16:45:00Z,30.4162,-87.8228,0.0,5.4,2 
NERRS,ioos:station:NOAA.NERRS:wkbfrwq:1,2014-01-08T17:45:00Z,30.4162,-87.8228,0.0,5.2,2 
NERRS,ioos:station:NOAA.NERRS:wkbfrwq:1,2014-01-08T19:45:00Z,30.4162,-87.8228,0.0,5.1,2 
NERRS,ioos:station:NOAA.NERRS:wkbfrwq:1,2014-01-08T20:45:00Z,30.4162,-87.8228,0.0,5.8,2 
NERRS,ioos:station:NOAA.NERRS:wkbfrwq:1,2014-01-08T21:45:00Z,30.4162,-87.8228,0.0,5.7,2 
NERRS,ioos:station:NOAA.NERRS:wkbfrwq:1,2014-01-08T22:45:00Z,30.4162,-87.8228,0.0,5.5,2 
NERRS,ioos:station:NOAA.NERRS:wkbfrwq:1,2014-01-08T23:45:00Z,30.4162,-87.8228,0.0,5.6,2 
NERRS,ioos:station:NOAA.NERRS:wkbfrwq:1,2014-01-09T00:45:00Z,30.4162,-87.8228,0.0,5.4,2 
NERRS,ioos:station:NOAA.NERRS:wkbfrwq:1,2014-01-09T01:45:00Z,30.4162,-87.8228,0.0,5.5,2 
NERRS,ioos:station:NOAA.NERRS:wkbfrwq:1,2014-01-09T02:45:00Z,30.4162,-87.8228,0.0,5.4,2 
NERRS,ioos:station:NOAA.NERRS:wkbfrwq:1,2014-01-09T03:45:00Z,30.4162,-87.8228,0.0,5.3,2 
NERRS,ioos:station:NOAA.NERRS:wkbfrwq:1,2014-01-09T04:45:00Z,30.4162,-87.8228,0.0,5.2,2 
NERRS,ioos:station:NOAA.NERRS:wkbfrwq:1,2014-01-09T05:45:00Z,30.4162,-87.8228,0.0,5.4,2 
NERRS,ioos:station:NOAA.NERRS:wkbfrwq:1,2014-01-09T06:45:00Z,30.4162,-87.8228,0.0,5.6,2 
NERRS,ioos:station:NOAA.NERRS:wkbfrwq:1,2014-01-09T07:45:00Z,30.4162,-87.8228,0.0,5.4,2 
NERRS,ioos:station:NOAA.NERRS:wkbfrwq:1,2014-01-09T08:45:00Z,30.4162,-87.8228,0.0,5.8,2 
NERRS,ioos:station:NOAA.NERRS:wkbfrwq:1,2014-01-09T09:45:00Z,30.4162,-87.8228,0.0,6.3,2 
NERRS,ioos:station:NOAA.NERRS:wkbfrwq:1,2014-01-09T10:45:00Z,30.4162,-87.8228,0.0,5.6,2 
NERRS,ioos:station:NOAA.NERRS:wkbfrwq:1,2014-01-09T11:45:00Z,30.4162,-87.8228,0.0,6.5,2 
NERRS,ioos:station:NOAA.NERRS:wkbfrwq:1,2014-01-09T12:45:00Z,30.4162,-87.8228,0.0,6.3,2 
NERRS,ioos:station:NOAA.NERRS:wkbfrwq:1,2014-01-09T13:45:00Z,30.4162,-87.8228,0.0,6.2,2 
NERRS,ioos:station:NOAA.NERRS:wkbfrwq:1,2014-01-09T14:45:00Z,30.4162,-87.8228,0.0,5.6,2 
NERRS,ioos:station:NOAA.NERRS:wkbfrwq:1,2014-01-09T15:45:00Z,30.4162,-87.8228,0.0,5.3,2 
NERRS,ioos:station:NOAA.NERRS:wkbfrwq:1,2014-01-09T16:45:00Z,30.4162,-87.8228,0.0,5.3,2 
NERRS,ioos:station:NOAA.NERRS:wkbfrwq:1,2014-01-09T17:45:00Z,30.4162,-87.8228,0.0,5.5,2 
NERRS,ioos:station:NOAA.NERRS:wkbfrwq:1,2014-01-09T18:45:00Z,30.4162,-87.8228,0.0,5.8,2 
NERRS,ioos:station:NOAA.NERRS:wkbfrwq:1,2014-01-09T19:45:00Z,30.4162,-87.8228,0.0,6.5,2 
NERRS,ioos:station:NOAA.NERRS:wkbfrwq:1,2014-01-09T20:45:00Z,30.4162,-87.8228,0.0,6.8,2 
NERRS,ioos:station:NOAA.NERRS:wkbfrwq:1,2014-01-09T21:45:00Z,30.4162,-87.8228,0.0,7.0,2 
NERRS,ioos:station:NOAA.NERRS:wkbfrwq:1,2014-01-09T22:45:00Z,30.4162,-87.8228,0.0,7.0,2 
NERRS,ioos:station:NOAA.NERRS:wkbfrwq:1,2014-01-09T23:45:00Z,30.4162,-87.8228,0.0,7.1,2 
NERRS,ioos:station:NOAA.NERRS:wkbfrwq:1,2014-01-10T00:45:00Z,30.4162,-87.8228,0.0,7.2,2 
NERRS,ioos:station:NOAA.NERRS:wkbfrwq:1,2014-01-10T01:45:00Z,30.4162,-87.8228,0.0,7.2,2 
NERRS,ioos:station:NOAA.NERRS:wkbfrwq:1,2014-01-10T02:45:00Z,30.4162,-87.8228,0.0,7.1,2 
NERRS,ioos:station:NOAA.NERRS:wkbfrwq:1,2014-01-10T03:45:00Z,30.4162,-87.8228,0.0,6.8,2 
NERRS,ioos:station:NOAA.NERRS:wkbfrwq:1,2014-01-10T04:45:00Z,30.4162,-87.8228,0.0,6.8,2 
NERRS,ioos:station:NOAA.NERRS:wkbfrwq:1,2014-01-10T05:45:00Z,30.4162,-87.8228,0.0,6.8,2 
NERRS,ioos:station:NOAA.NERRS:wkbfrwq:1,2014-01-10T06:45:00Z,30.4162,-87.8228,0.0,6.7,2 
NERRS,ioos:station:NOAA.NERRS:wkbfrwq:1,2014-01-10T07:45:00Z,30.4162,-87.8228,0.0,6.7,2 
NERRS,ioos:station:NOAA.NERRS:wkbfrwq:1,2014-01-10T08:45:00Z,30.4162,-87.8228,0.0,6.7,2 
NERRS,ioos:station:NOAA.NERRS:wkbfrwq:1,2014-01-10T09:45:00Z,30.4162,-87.8228,0.0,6.6,2 
NERRS,ioos:station:NOAA.NERRS:wkbfrwq:1,2014-01-10T10:45:00Z,30.4162,-87.8228,0.0,6.6,2 
NERRS,ioos:station:NOAA.NERRS:wkbfrwq:1,2014-01-10T11:45:00Z,30.4162,-87.8228,0.0,6.7,2 
NERRS,ioos:station:NOAA.NERRS:wkbfrwq:1,2014-01-10T12:45:00Z,30.4162,-87.8228,0.0,7.0,2 
NERRS,ioos:station:NOAA.NERRS:wkbfrwq:1,2014-01-10T13:45:00Z,30.4162,-87.8228,0.0,7.4,2 
NERRS,ioos:station:NOAA.NERRS:wkbfrwq:1,2014-01-10T14:45:00Z,30.4162,-87.8228,0.0,7.3,2 
NERRS,ioos:station:NOAA.NERRS:wkbfrwq:1,2014-01-10T15:45:00Z,30.4162,-87.8228,0.0,7.7,2 
NERRS,ioos:station:NOAA.NERRS:wkbfrwq:1,2014-01-10T16:45:00Z,30.4162,-87.8228,0.0,7.8,2 
NERRS,ioos:station:NOAA.NERRS:wkbfrwq:1,2014-01-10T17:45:00Z,30.4162,-87.8228,0.0,7.9,2 
NERRS,ioos:station:NOAA.NERRS:wkbfrwq:1,2014-01-10T18:45:00Z,30.4162,-87.8228,0.0,8.0,2 
NERRS,ioos:station:NOAA.NERRS:wkbfrwq:1,2014-01-10T19:45:00Z,30.4162,-87.8228,0.0,8.1,2 
NERRS,ioos:station:NOAA.NERRS:wkbfrwq:1,2014-01-10T20:45:00Z,30.4162,-87.8228,0.0,8.3,2 
NERRS,ioos:station:NOAA.NERRS:wkbfrwq:1,2014-01-10T21:45:00Z,30.4162,-87.8228,0.0,8.6,2 
NERRS,ioos:station:NOAA.NERRS:wkbfrwq:1,2014-01-10T22:45:00Z,30.4162,-87.8228,0.0,8.6,2 
NERRS,ioos:station:NOAA.NERRS:wkbfrwq:1,2014-01-10T23:45:00Z,30.4162,-87.8228,0.0,8.5,2 
NERRS,ioos:station:NOAA.NERRS:wkbfrwq:1,2014-01-11T00:45:00Z,30.4162,-87.8228,0.0,8.6,2 
NERRS,ioos:station:NOAA.NERRS:wkbfrwq:1,2014-01-11T01:45:00Z,30.4162,-87.8228,0.0,8.6,2 
NERRS,ioos:station:NOAA.NERRS:wkbfrwq:1,2014-01-11T02:45:00Z,30.4162,-87.8228,0.0,8.5,2 
NERRS,ioos:station:NOAA.NERRS:wkbfrwq:1,2014-01-11T03:45:00Z,30.4162,-87.8228,0.0,8.5,2 
NERRS,ioos:station:NOAA.NERRS:wkbfrwq:1,2014-01-11T04:45:00Z,30.4162,-87.8228,0.0,8.5,2 
NERRS,ioos:station:NOAA.NERRS:wkbfrwq:1,2014-01-11T05:45:00Z,30.4162,-87.8228,0.0,8.3,2 
NERRS,ioos:station:NOAA.NERRS:wkbfrwq:1,2014-01-11T06:45:00Z,30.4162,-87.8228,0.0,8.0,2 
NERRS,ioos:station:NOAA.NERRS:wkbfrwq:1,2014-01-11T07:45:00Z,30.4162,-87.8228,0.0,8.1,2 
NERRS,ioos:station:NOAA.NERRS:wkbfrwq:1,2014-01-11T08:45:00Z,30.4162,-87.8228,0.0,8.0,2 
NERRS,ioos:station:NOAA.NERRS:wkbfrwq:1,2014-01-11T09:45:00Z,30.4162,-87.8228,0.0,7.8,2 
NERRS,ioos:station:NOAA.NERRS:wkbfrwq:1,2014-01-11T10:45:00Z,30.4162,-87.8228,0.0,7.8,2 
NERRS,ioos:station:NOAA.NERRS:wkbfrwq:1,2014-01-11T11:45:00Z,30.4162,-87.8228,0.0,8.0,2 
NERRS,ioos:station:NOAA.NERRS:wkbfrwq:1,2014-01-11T12:45:00Z,30.4162,-87.8228,0.0,8.0,2 
NERRS,ioos:station:NOAA.NERRS:wkbfrwq:1,2014-01-11T13:45:00Z,30.4162,-87.8228,0.0,8.4,2 
NERRS,ioos:station:NOAA.NERRS:wkbfrwq:1,2014-01-11T14:45:00Z,30.4162,-87.8228,0.0,10.2,2 
NERRS,ioos:station:NOAA.NERRS:wkbfrwq:1,2014-01-11T15:45:00Z,30.4162,-87.8228,0.0,9.8,2 
NERRS,ioos:station:NOAA.NERRS:wkbfrwq:1,2014-01-11T16:45:00Z,30.4162,-87.8228,0.0,9.6,2 
NERRS,ioos:station:NOAA.NERRS:wkbfrwq:1,2014-01-11T17:45:00Z,30.4162,-87.8228,0.0,9.0,2 
NERRS,ioos:station:NOAA.NERRS:wkbfrwq:1,2014-01-11T18:45:00Z,30.4162,-87.8228,0.0,10.1,2 
NERRS,ioos:station:NOAA.NERRS:wkbfrwq:1,2014-01-11T19:45:00Z,30.4162,-87.8228,0.0,9.8,2 
NERRS,ioos:station:NOAA.NERRS:wkbfrwq:1,2014-01-11T20:45:00Z,30.4162,-87.8228,0.0,12.3,2 
NERRS,ioos:station:NOAA.NERRS:wkbfrwq:1,2014-01-11T21:45:00Z,30.4162,-87.8228,0.0,12.1,2 
NERRS,ioos:station:NOAA.NERRS:wkbfrwq:1,2014-01-11T22:45:00Z,30.4162,-87.8228,0.0,11.2,2 
NERRS,ioos:station:NOAA.NERRS:wkbfrwq:1,2014-01-11T23:45:00Z,30.4162,-87.8228,0.0,10.7,2 
NERRS,ioos:station:NOAA.NERRS:wkbfrwq:1,2014-01-12T00:45:00Z,30.4162,-87.8228,0.0,10.2,2 
NERRS,ioos:station:NOAA.NERRS:wkbfrwq:1,2014-01-12T01:45:00Z,30.4162,-87.8228,0.0,12.0,2 
NERRS,ioos:station:NOAA.NERRS:wkbfrwq:1,2014-01-12T02:45:00Z,30.4162,-87.8228,0.0,11.1,2 
NERRS,ioos:station:NOAA.NERRS:wkbfrwq:1,2014-01-12T03:45:00Z,30.4162,-87.8228,0.0,9.4,2 
NERRS,ioos:station:NOAA.NERRS:wkbfrwq:1,2014-01-12T04:45:00Z,30.4162,-87.8228,0.0,11.5,2 
NERRS,ioos:station:NOAA.NERRS:wkbfrwq:1,2014-01-12T05:45:00Z,30.4162,-87.8228,0.0,10.5,2 
NERRS,ioos:station:NOAA.NERRS:wkbfrwq:1,2014-01-12T06:45:00Z,30.4162,-87.8228,0.0,9.7,2 
NERRS,ioos:station:NOAA.NERRS:wkbfrwq:1,2014-01-12T08:45:00Z,30.4162,-87.8228,0.0,10.7,2 
NERRS,ioos:station:NOAA.NERRS:wkbfrwq:1,2014-01-12T09:45:00Z,30.4162,-87.8228,0.0,10.4,2 
NERRS,ioos:station:NOAA.NERRS:wkbfrwq:1,2014-01-12T10:45:00Z,30.4162,-87.8228,0.0,10.5,2 
NERRS,ioos:station:NOAA.NERRS:wkbfrwq:1,2014-01-12T11:45:00Z,30.4162,-87.8228,0.0,10.6,2 
NERRS,ioos:station:NOAA.NERRS:wkbfrwq:1,2014-01-12T12:45:00Z,30.4162,-87.8228,0.0,9.6,2 
NERRS,ioos:station:NOAA.NERRS:wkbfrwq:1,2014-01-12T13:45:00Z,30.4162,-87.8228,0.0,9.7,2 
NERRS,ioos:station:NOAA.NERRS:wkbfrwq:1,2014-01-12T14:45:00Z,30.4162,-87.8228,0.0,10.0,2 
NERRS,ioos:station:NOAA.NERRS:wkbfrwq:1,2014-01-12T15:45:00Z,30.4162,-87.8228,0.0,11.0,2 
NERRS,ioos:station:NOAA.NERRS:wkbfrwq:1,2014-01-12T16:45:00Z,30.4162,-87.8228,0.0,11.2,2 
NERRS,ioos:station:NOAA.NERRS:wkbfrwq:1,2014-01-12T17:45:00Z,30.4162,-87.8228,0.0,11.5,2 
NERRS,ioos:station:NOAA.NERRS:wkbfrwq:1,2014-01-12T18:45:00Z,30.4162,-87.8228,0.0,11.5,2 
NERRS,ioos:station:NOAA.NERRS:wkbfrwq:1,2014-01-12T19:45:00Z,30.4162,-87.8228,0.0,12.6,2 
NERRS,ioos:station:NOAA.NERRS:wkbfrwq:1,2014-01-12T20:45:00Z,30.4162,-87.8228,0.0,12.9,2 
NERRS,ioos:station:NOAA.NERRS:wkbfrwq:1,2014-01-12T21:45:00Z,30.4162,-87.8228,0.0,13.2,2 
NERRS,ioos:station:NOAA.NERRS:wkbfrwq:1,2014-01-12T22:45:00Z,30.4162,-87.8228,0.0,13.6,2 
NERRS,ioos:station:NOAA.NERRS:wkbfrwq:1,2014-01-12T23:45:00Z,30.4162,-87.8228,0.0,13.7,2 
NERRS,ioos:station:NOAA.NERRS:wkbfrwq:1,2014-01-13T00:45:00Z,30.4162,-87.8228,0.0,14.0,2 
NERRS,ioos:station:NOAA.NERRS:wkbfrwq:1,2014-01-13T01:45:00Z,30.4162,-87.8228,0.0,14.0,2 
NERRS,ioos:station:NOAA.NERRS:wkbfrwq:1,2014-01-13T02:45:00Z,30.4162,-87.8228,0.0,13.6,2 
NERRS,ioos:station:NOAA.NERRS:wkbfrwq:1,2014-01-13T03:45:00Z,30.4162,-87.8228,0.0,13.2,2 
NERRS,ioos:station:NOAA.NERRS:wkbfrwq:1,2014-01-13T04:45:00Z,30.4162,-87.8228,0.0,13.5,2 
NERRS,ioos:station:NOAA.NERRS:wkbfrwq:1,2014-01-13T05:45:00Z,30.4162,-87.8228,0.0,13.6,2 
NERRS,ioos:station:NOAA.NERRS:wkbfrwq:1,2014-01-13T06:45:00Z,30.4162,-87.8228,0.0,13.4,2 
NERRS,ioos:station:NOAA.NERRS:wkbfrwq:1,2014-01-13T07:45:00Z,30.4162,-87.8228,0.0,13.6,2 
NERRS,ioos:station:NOAA.NERRS:wkbfrwq:1,2014-01-13T08:45:00Z,30.4162,-87.8228,0.0,13.5,2 
NERRS,ioos:station:NOAA.NERRS:wkbfrwq:1,2014-01-13T09:45:00Z,30.4162,-87.8228,0.0,13.1,2 
NERRS,ioos:station:NOAA.NERRS:wkbfrwq:1,2014-01-13T10:45:00Z,30.4162,-87.8228,0.0,12.7,2 
NERRS,ioos:station:NOAA.NERRS:wkbfrwq:1,2014-01-13T11:45:00Z,30.4162,-87.8228,0.0,11.5,2 
NERRS,ioos:station:NOAA.NERRS:wkbfrwq:1,2014-01-13T12:45:00Z,30.4162,-87.8228,0.0,11.9,2 
NERRS,ioos:station:NOAA.NERRS:wkbfrwq:1,2014-01-13T13:45:00Z,30.4162,-87.8228,0.0,11.7,2 
NERRS,ioos:station:NOAA.NERRS:wkbfrwq:1,2014-01-13T14:45:00Z,30.4162,-87.8228,0.0,11.3,2 
NERRS,ioos:station:NOAA.NERRS:wkbfrwq:1,2014-01-13T15:45:00Z,30.4162,-87.8228,0.0,11.9,2 
NERRS,ioos:station:NOAA.NERRS:wkbfrwq:1,2014-01-13T16:45:00Z,30.4162,-87.8228,0.0,12.8,2 
NERRS,ioos:station:NOAA.NERRS:wkbfrwq:1,2014-01-13T17:45:00Z,30.4162,-87.8228,0.0,12.9,2 
NERRS,ioos:station:NOAA.NERRS:wkbfrwq:1,2014-01-13T18:45:00Z,30.4162,-87.8228,0.0,12.9,2 
NERRS,ioos:station:NOAA.NERRS:wkbfrwq:1,2014-01-13T19:45:00Z,30.4162,-87.8228,0.0,12.9,2 
NERRS,ioos:station:NOAA.NERRS:wkbfrwq:1,2014-01-13T20:45:00Z,30.4162,-87.8228,0.0,12.8,2 
NERRS,ioos:station:NOAA.NERRS:wkbfrwq:1,2014-01-13T21:45:00Z,30.4162,-87.8228,0.0,12.8,2 
NERRS,ioos:station:NOAA.NERRS:wkbfrwq:1,2014-01-13T22:45:00Z,30.4162,-87.8228,0.0,12.8,2 
NERRS,ioos:station:NOAA.NERRS:wkbfrwq:1,2014-01-13T23:45:00Z,30.4162,-87.8228,0.0,12.9,2 
NERRS,ioos:station:NOAA.NERRS:wkbfrwq:1,2014-01-14T00:45:00Z,30.4162,-87.8228,0.0,13.0,2 
NERRS,ioos:station:NOAA.NERRS:wkbfrwq:1,2014-01-14T01:45:00Z,30.4162,-87.8228,0.0,13.1,2 
NERRS,ioos:station:NOAA.NERRS:wkbfrwq:1,2014-01-14T02:45:00Z,30.4162,-87.8228,0.0,13.1,2 
NERRS,ioos:station:NOAA.NERRS:wkbfrwq:1,2014-01-14T03:45:00Z,30.4162,-87.8228,0.0,13.0,2 
NERRS,ioos:station:NOAA.NERRS:wkbfrwq:1,2014-01-14T04:45:00Z,30.4162,-87.8228,0.0,13.0,2 
NERRS,ioos:station:NOAA.NERRS:wkbfrwq:1,2014-01-14T05:45:00Z,30.4162,-87.8228,0.0,12.9,2 
NERRS,ioos:station:NOAA.NERRS:wkbfrwq:1,2014-01-14T06:45:00Z,30.4162,-87.8228,0.0,12.8,2 
NERRS,ioos:station:NOAA.NERRS:wkbfrwq:1,2014-01-14T07:45:00Z,30.4162,-87.8228,0.0,12.8,2 
NERRS,ioos:station:NOAA.NERRS:wkbfrwq:1,2014-01-14T08:45:00Z,30.4162,-87.8228,0.0,12.4,2 